Location: *
(55.6049°S, 142.1985°W)
Time: 10:37:26
(UTC+00:00)

Daily predictions for brighter satellites

Satellite Brightness Start Highest point End
(mag) Time Altitude Azimuth Time Altitude Azimuth Time Altitude Azimuth
ATLAS 2AS CENTAUR R/B 4.4 12:29:49 24° SE 12:29:49 24° SE 12:32:20 10° SE
Cosmos 2369 Rocket 4.3 13:21:50 19° SSE 13:21:50 19° SSE 13:23:50 10° SSE
ATLAS CENTAUR R/B 4.1 13:22:50 20° SE 13:22:50 20° SE 13:24:51 10° ESE
Cosmos 2263 Rocket 3.4 13:25:56 40° ESE 13:25:56 40° ESE 13:30:35 10° ENE
Envisat 4.3 13:35:18 10° NE 13:40:00 37° ESE 13:40:42 35° SE
Cosmos 1943 Rocket 4.2 13:43:39 18° S 13:43:39 18° S 13:45:47 10° SSE
USA 229 DEB 4.5 13:48:22 38° NNE 13:48:22 38° NNE 13:52:17 10° NNE
USA 229 4.5 13:48:28 38° NNE 13:48:28 38° NNE 13:52:25 10° NNE
CZ-4C R/B 2.8 13:49:50 69° SSE 13:49:50 69° SSE 13:55:34 10° SE
NOSS 3-4 (A) 4.4 13:53:01 47° SSW 13:53:29 48° S 14:00:27 10° ESE
NOSS 3-4 (C) 4.4 13:53:07 47° SSW 13:53:36 48° S 14:00:34 10° ESE
Cosmos 1980 Rocket 3.9 13:50:50 11° NNE 13:55:22 30° ENE 14:00:13 10° SE
NOSS 3-1 (A) 4.1 14:00:01 43° NNE 14:00:01 43° NNE 14:03:44 10° NE
Cosmos 1844 Rocket 4.3 13:59:47 24° S 14:01:28 28° SSE 14:06:23 10° E
Okean O Rocket 3.6 13:58:03 10° NNE 13:59:50 23° NE 13:59:50 23° NE
USA 234 3.1 14:08:16 10° ENE 14:14:53 75° NNW 14:15:30 70° WNW
SL-16 R/B 4.1 14:10:42 10° S 14:13:18 22° SSW 14:13:18 22° SSW
ATLAS 2AS CENTAUR R/B 3.2 14:17:14 40° SSW 14:17:55 41° S 14:24:08 10° ESE
Cosmos 2278 Rocket 4.1 14:19:52 17° S 14:21:32 19° SSE 14:25:38 10° ESE
Cosmos 1697 Rocket 2.9 14:21:07 53° N 14:22:22 71° ENE 14:28:04 10° SE
Cosmos 1092 Rocket 4.1 14:16:52 10° N 14:23:04 74° E 14:29:19 10° SSE
Timation 1 Rocket 4.3 14:25:40 64° NNW 14:25:40 64° NNW 14:31:09 10° NNE
Cosmos 372 Rocket 4.2 14:25:27 56° S 14:26:20 66° ESE 14:31:28 10° NE
Radarsat Rocket 4.1 14:20:22 10° NNE 14:27:28 77° WNW 14:30:16 37° SSW
SMAP 3.2 14:23:37 10° NNE 14:28:19 74° ESE 14:28:34 72° SE
CZ-4B R/B 3.1 14:24:20 10° NNE 14:30:00 80° WNW 14:30:51 65° SW
COSMOS 2455 4.0 14:30:52 29° SSW 14:31:08 29° S 14:36:24 10° SE
Cosmos 1707 4.3 14:34:42 30° SSE 14:34:42 30° SSE 14:36:52 10° SSE
Cosmos 1937 Rocket 4.0 14:35:24 44° N 14:35:24 44° N 14:39:04 10° NNE
CZ-4 R/B 3.6 14:31:12 10° ENE 14:34:41 25° ESE 14:38:14 10° S
Nadezhda 4 Rocket 3.9 14:34:26 59° WNW 14:35:20 67° WSW 14:41:36 10° S
Cosmos 1656 3.6 14:35:25 66° SW 14:35:25 66° SW 14:41:08 10° SSE
Cosmos 1953 3.9 14:38:37 27° NNE 14:38:37 27° NNE 14:40:32 10° NNE
Okean-O 4.2 14:33:08 10° NE 14:37:11 34° ESE 14:41:07 11° S
Lacrosse 5 rocket 1.7 14:40:34 58° E 14:40:34 58° E 14:43:59 10° ESE
Cosmos 1908 4.0 14:42:05 42° SSE 14:42:53 50° ESE 14:46:40 10° NNE
Cosmos 1025 Rocket 3.0 14:46:09 40° N 14:47:42 80° E 14:52:06 10° SSE
Cosmos 2227 4.1 14:48:36 58° WSW 14:49:28 67° WNW 14:55:06 10° NNE
YAOGAN 6 4.2 14:46:42 10° NNE 14:48:20 26° NNE 14:48:20 26° NNE
ASTEX 1 4.1 14:46:31 10° NNE 14:51:20 54° ESE 14:56:14 10° S
Meteor 1-16 Rocket 4.2 14:47:06 13° SSW 14:52:34 85° WNW 14:58:18 10° N
H-2A R/B 3.3 14:49:29 10° S 14:52:03 31° S 14:52:03 31° S
Cosmos 2360 4.2 14:51:48 25° NNW 14:55:16 85° NE 15:01:05 10° SE
Meteor 1-21 4.2 14:53:29 29° NW 14:56:27 65° WSW 15:02:13 10° S
AQUARIUS 4.0 14:52:50 10° N 14:57:23 73° WNW 14:58:04 61° SW
Meteor 2-8 Rocket 4.4 14:53:08 10° SSW 14:59:20 88° ESE 15:05:31 10° N
Cosmos 2322 Rocket 4.4 14:55:39 10° NNE 15:00:17 26° ENE 15:04:58 10° SE
ATLAS CENTAUR R/B 2.3 14:59:01 39° SSW 15:00:27 53° SSE 15:05:15 10° ENE
IRS-1C Rocket 4.2 14:55:42 10° NNE 15:01:01 80° ESE 15:06:16 11° SSW
SAR-Lupe-4 3.9 14:57:44 10° SSE 15:00:45 57° SSE 15:00:45 57° SSE
Aureole 3 3.9 14:57:41 10° S 15:02:58 69° ESE 15:07:02 10° NNE
Cosmos 1428 Rocket 4.5 14:57:24 10° NNW 15:03:47 86° W 15:10:15 10° S
Radarsat 4.5 14:59:09 10° N 15:04:24 69° WNW 15:07:45 23° SSW
CZ-4B R/B 3.8 15:01:06 10° SSE 15:01:37 14° SSE 15:01:37 14° SSE
Cosmos 2369 Rocket 4.0 15:03:37 17° SSW 15:04:44 18° S 15:08:36 10° SE
BREEZE-M DEB (TANK) 4.3 15:02:44 30° WNW 15:05:55 49° NNW 15:09:23 10° ENE
Cosmos 1726 4.5 15:09:16 13° NNW 15:09:16 13° NNW 15:09:47 10° NNW
Cosmos 1553 Rocket 4.0 14:59:50 10° SSW 15:06:22 78° W 15:12:47 10° N
Cosmos 1536 Rocket 3.4 15:04:06 10° NNW 15:08:30 80° WSW 15:12:58 10° S
YAOGAN 1 3.9 15:04:28 10° NE 15:08:34 39° ESE 15:12:42 10° S
Cosmos 2263 Rocket 2.3 15:07:39 41° WSW 15:09:19 56° WNW 15:14:54 10° NNE
Cosmos 2058 Rocket 4.3 15:06:32 10° S 15:10:50 43° ESE 15:15:07 10° NE
Cosmos 1627 Rocket 4.4 15:05:01 10° NNW 15:11:16 71° WSW 15:17:42 10° S
Cosmos 2298 Rocket 3.9 15:13:12 30° SW 15:15:57 74° WNW 15:21:16 10° NNE
Cosmos 1674 3.1 15:13:39 10° N 15:17:24 62° E 15:21:15 10° SSE
SAR-Lupe-1 4.0 15:14:16 10° S 15:17:47 65° WSW 15:17:47 65° WSW
Envisat 3.2 15:14:01 10° N 15:18:58 46° W 15:20:55 32° SW
Cosmos 1606 Rocket 3.5 15:15:36 15° S 15:19:17 85° ESE 15:23:41 10° NNE
S3M 3.9 15:13:25 10° SSW 15:19:40 82° W 15:25:50 10° N
Helios 1A Rocket 2.8 15:15:36 10° N 15:19:43 70° WNW 15:21:37 32° SSW
USA 267 3.9 15:13:17 10° ESE 15:19:47 55° NE 15:26:14 10° NW
NOAA 12 4.1 15:15:10 10° N 15:20:22 56° W 15:24:23 17° SSW
Cosmos 2285 Rocket 4.0 15:17:24 21° SW 15:21:49 64° WNW 15:28:12 10° N
In-Cosmos 22 4.0 15:19:02 10° NNW 15:24:33 83° WSW 15:30:01 10° SSE
Cosmos 1943 Rocket 4.0 15:25:10 14° SSW 15:27:27 17° S 15:30:59 10° SE
Cosmos 1844 4.2 15:23:55 17° SSW 15:28:14 57° SE 15:33:51 10° NE
NOAA 11 4.2 15:23:31 10° NNE 15:29:06 86° WNW 15:34:45 10° SSW
ATLAS 5 CENTAUR R/B 4.3 15:23:41 10° N 15:29:57 35° ENE 15:35:45 10° ESE
Cosmos 2208 Rocket 4.1 15:27:15 10° NNW 15:32:28 79° ENE 15:37:45 10° SSE
Cosmos 1814 Rocket 4.2 15:29:44 10° NNW 15:35:05 78° ENE 15:40:32 10° SSE
H-2A R/B 3.3 15:31:54 10° NE 15:36:30 38° ESE 15:41:13 10° S
CZ-4C R/B 3.1 15:35:02 26° WSW 15:38:32 44° S 15:44:14 10° ESE
Cosmos 1980 Rocket 2.1 15:33:22 10° NW 15:39:00 68° SW 15:44:41 10° SSE
Okean O Rocket 3.3 15:35:32 10° NW 15:37:18 18° NW 15:37:18 18° NW
Cosmos 1437 2.5 15:36:31 10° NNW 15:39:36 88° E 15:42:43 10° SSE
SKYMED 2 4.2 15:35:57 10° SSE 15:40:22 61° ENE 15:44:44 10° N
Cosmos 1763 Rocket 3.6 15:35:45 10° NW 15:40:59 55° SW 15:46:11 10° SSE
Cosmos 2369 4.0 15:38:46 21° WNW 15:42:22 48° SW 15:47:56 10° SSE
Cosmos 2084 3.4 15:41:51 31° WSW 15:43:53 82° NW 15:48:12 10° NE
ARGOS Delta rocket 4.1 15:39:57 10° N 15:44:42 47° W 15:49:08 11° SSW
NOSS 3-4 (A) 4.2 15:40:27 20° SW 15:45:45 57° SSE 15:52:31 10° E
NOSS 3-4 (C) 4.2 15:40:33 20° SW 15:45:52 57° SSE 15:52:38 10° E
Cosmos 1844 Rocket 2.8 15:41:27 16° SSW 15:46:14 81° SE 15:51:58 10° NE
Cosmos 1726 Rocket 3.5 15:42:11 10° SSW 15:46:35 68° W 15:50:56 10° N
Aureole 3 Rocket 4.5 15:50:04 18° WNW 15:50:04 18° WNW 15:51:51 10° NW
Okean 1-7 Rocket 4.4 15:48:25 10° N 15:52:48 54° E 15:57:18 10° SSE
CZ-2C R/B 3.8 15:48:46 10° NE 15:53:53 55° ESE 15:59:20 10° S
Resurs 01 Rocket 4.3 15:52:20 10° E 15:54:50 15° SE 15:57:19 10° SSE
Cosmos 468 Rocket 4.4 15:50:36 13° WNW 15:54:57 41° SW 15:59:57 10° SSE
Cosmos 2026 Rocket 4.3 15:49:53 10° NW 15:55:44 41° WSW 16:01:44 10° S
PSLV R/B 3.9 15:52:15 10° SSE 15:56:28 75° WSW 16:00:39 10° NNW
SL-16 R/B 4.4 15:56:12 10° SSW 15:57:48 11° SSW 15:58:24 11° SSW
USA 234 4.1 15:52:37 10° NNE 15:58:34 35° NW 16:02:51 18° W
CSL-04 Rocket 3.8 15:55:43 10° NNE 16:01:12 84° ESE 16:06:50 10° SSW
Cosmos 2278 4.0 15:56:34 10° WNW 16:02:06 48° SW 16:07:40 10° SSE
Ariane Rocket 4.1 15:57:57 10° NE 16:02:47 43° ESE 16:07:40 10° S
Cosmos 1570 Rocket 4.1 15:57:58 10° NW 16:03:20 60° WSW 16:08:44 10° SSE
KORONAS-FOTON 4.0 15:59:38 10° NNW 16:03:25 50° WSW 16:07:15 10° S
SL-16 R/B 2.5 15:57:58 10° NNW 16:03:40 73° ENE 16:09:24 10° SE
Cosmos 540 Rocket 3.5 15:58:52 10° NW 16:04:04 63° WSW 16:09:17 10° SSE
SMAP 4.3 16:02:43 10° NW 16:06:13 20° W 16:07:02 19° WSW
Cosmos 1939 Rocket 3.1 16:02:17 10° N 16:06:19 52° W 16:10:28 10° SSW
Cosmos 1697 Rocket 3.3 16:02:54 16° W 16:06:48 36° SW 16:12:04 10° SSE
CSL-04 Debris 4.2 16:01:21 10° NNE 16:06:49 87° WNW 16:12:20 10° SSW
Cosmos 2278 Rocket 3.3 16:01:49 10° SSW 16:07:14 40° SE 16:12:37 10° ENE
Cosmos 1689 Rocket 3.0 16:05:28 10° S 16:08:12 29° WSW 16:10:56 10° NW
Cosmos 1707 4.3 16:09:55 18° SW 16:09:55 18° SW 16:12:04 10° SSW
CZ-4 R/B 1.6 16:05:14 10° N 16:09:26 56° W 16:13:42 10° SSW
ATLAS 2AS CENTAUR R/B 3.0 16:04:40 16° SW 16:09:51 59° SSE 16:16:36 10° ENE
HJ-1C 3.7 16:06:31 10° NNE 16:09:52 70° ESE 16:13:17 10° S
Cosmos 841 Rocket 3.6 16:04:40 10° NW 16:09:55 57° SW 16:15:13 10° SSE
Cosmos 2228 3.6 16:06:28 11° SSW 16:10:15 35° W 16:14:09 10° NNW
Okean-O 3.1 16:09:19 10° N 16:13:36 42° W 16:17:56 10° SSW
Cosmos 1626 2.1 16:10:04 10° NNW 16:13:52 81° WSW 16:17:43 10° S
Cosmos 1125 Rocket 3.9 16:10:44 13° SW 16:15:15 44° WNW 16:20:14 10° N
Meteor 2-19 Rocket 4.5 16:10:03 10° NNW 16:16:14 64° WSW 16:22:28 10° S
COSMOS 2455 4.0 16:14:01 13° SW 16:18:46 31° SSE 16:24:06 10° ESE
Lacrosse 5 rocket 1.3 16:16:12 18° W 16:19:09 71° S 16:23:23 10° E
SL-14 R/B 3.2 16:15:15 10° NNW 16:19:12 79° WSW 16:23:12 10° S
Cosmos 2098 Rocket 4.1 16:13:14 10° NNW 16:19:15 79° WSW 16:26:32 10° S
ADEOS Rocket 2.8 16:15:32 10° S 16:21:01 56° WSW 16:26:28 10° NW
CZ-2D R/B 3.7 16:18:10 10° N 16:21:55 42° W 16:25:45 10° SSW
Meteor 2-10 Rocket 4.0 16:16:31 10° SSW 16:22:17 70° ESE 16:27:45 10° NNE
Cosmos 1300 3.1 16:20:18 10° SSW 16:24:02 43° W 16:27:43 10° NNW
Cosmos 1025 Rocket 4.4 16:23:13 11° W 16:25:55 18° WSW 16:28:56 10° SSW
SL-24 R/B 4.4 16:21:58 10° N 16:26:14 50° W 16:30:49 10° SSW
Meteor 1-24 Rocket 3.6 16:22:37 10° NNW 16:28:01 78° WSW 16:33:27 10° SSE
COSMO-SKYMED 1 2.7 16:24:07 10° S 16:28:28 54° WSW 16:32:46 10° NW
H-2A R/B 4.0 16:27:10 10° SSW 16:28:58 12° SW 16:29:09 12° SW
ASTEX 1 4.3 16:26:25 10° NW 16:30:39 28° W 16:34:58 10° SSW
Cosmos 1818 4.1 16:26:08 10° NNW 16:31:30 65° NE 16:36:53 10° SE
Cosmos 1655 Rocket 4.2 16:25:58 10° NW 16:32:01 48° WSW 16:38:08 10° S
Cosmos 1892 Rocket 3.7 16:31:09 10° NNW 16:35:35 55° WSW 16:40:02 10° S
SJ-11-01 4.3 16:32:41 10° N 16:37:28 72° WNW 16:42:19 10° SSW
Cosmos 1455 2.6 16:33:56 10° S 16:37:48 66° ESE 16:41:35 10° NNE
Cosmos 2266 Rocket 4.1 16:33:04 10° NNW 16:39:13 54° WSW 16:45:21 10° S
ATLAS CENTAUR R/B 2.3 16:35:12 12° WSW 16:39:27 45° NW 16:44:05 10° NNE
Meteor 2-5 Rocket 3.9 16:37:40 10° NW 16:43:08 51° WSW 16:48:38 10° S
Cosmos 1356 Rocket 4.4 16:39:39 10° SW 16:43:10 26° W 16:46:41 10° NNW
Cosmos 2322 Rocket 2.2 16:38:03 10° NW 16:43:49 78° SW 16:49:37 10° SSE
YAOGAN 1 3.3 16:40:44 10° NNW 16:44:44 34° W 16:48:47 10° SSW
Nadezhda 1 Rocket 4.2 16:38:40 10° S 16:44:52 74° ESE 16:51:02 10° NNE
Cosmos 1626 Rocket 3.7 16:42:27 10° N 16:46:50 81° E 16:51:17 10° SSE
Cosmos 2315 Rocket 4.4 16:42:32 10° SSW 16:48:25 42° W 16:54:14 10° NNW
Cosmos 2058 Rocket 4.0 16:44:49 10° SSW 16:48:43 29° W 16:52:35 10° NNW
SJ-6B 3.1 16:46:06 10° NNE 16:49:53 67° ESE 16:53:43 10° S
Cosmos 2369 Rocket 3.9 16:46:32 10° SSW 16:50:57 22° SSE 16:55:21 10° ESE
Cosmos 2263 Rocket 4.0 16:49:50 10° WSW 16:52:01 12° W 16:54:13 10° WNW
Cosmos 1674 4.1 16:50:40 10° WNW 16:53:22 18° WSW 16:56:06 10° SSW
Cosmos 1174 4.2 16:50:01 10° SW 16:54:32 58° SE 16:58:09 10° ENE
Meteor 2-1 Rocket 4.3 16:49:46 10° SSW 16:55:23 64° W 17:00:53 10° N
USA 186 1.3 16:54:15 10° N 16:56:53 76° WNW 16:59:46 10° SSW
ARGOS 3.2 16:53:42 10° N 16:59:06 72° WNW 17:04:36 10° SSW
USA 116 3.5 16:58:42 10° S 17:01:47 44° WSW 17:04:52 10° NW
USA 267 3.4 16:56:28 10° ESE 17:03:07 88° S 17:09:46 10° WNW
Cosmos 2219 Rocket 3.7 17:00:59 10° N 17:06:21 44° ENE 17:11:45 10° SE
